Date,TemperatureHighF,TemperatureAvgF,TemperatureLowF,DewpointHighF,DewpointAvgF,DewpointLowF,HumidityHigh,HumidityAvg,HumidityLow,PressureMaxIn,PressureMinIn,WindSpeedMaxMPH,WindSpeedAvgMPH,GustSpeedMaxMPH,PrecipitationSumIn
2013-3-1,36.9,33.6,28.8,11.6,-0.0,-17.2,36,24,1,29.63,29.51,4,2,4,0.00
2013-3-2,28.8,26.8,25.6,-0.1,-6.7,-22.9,32,23,6,29.62,29.60,3,1,3,0.00
2013-3-3,27.5,24.7,21.6,8.4,-1.8,-26.7,45,33,6,29.60,29.54,11,8,11,0.00
2013-3-4,26.6,25.7,24.1,-5.8,-17.9,-24.6,24,10,1,29.69,29.61,13,9,13,0.00
2013-3-5,39.2,32.7,26.5,22.6,12.0,-7.5,51,43,22,29.85,29.82,6,2,6,0.00
2013-3-6,40.7,39.7,38.7,22.8,20.4,10.6,51,46,31,29.86,29.84,10,5,10,0.00
2013-3-7,37.8,36.5,34.4,22.6,14.0,-11.1,54,43,14,29.94,29.92,6,3,6,0.00
2013-3-8,41.4,35.3,29.0,24.1,10.0,-20.8,50,37,1,30.13,29.98,11,7,11,0.11
2013-3-9,48.2,36.1,25.9,27.3,10.7,-23.2,52,37,2,30.16,30.09,8,3,8,0.00
2013-3-11,45.4,43.4,41.4,24.0,11.0,-2.4,43,27,16,29.77,29.73,9,3,9,0.00
2013-3-12,39.2,37.5,35.1,-12.8,-14.2,-16.1,1,1,1,29.68,29.56,7,4,7,0.33
2013-3-13,40.7,35.5,30.4,22.4,-1.1,-19.6,49,21,1,29.69,29.58,11,3,11,0.00
2013-3-14,24.1,21.9,19.8,6.6,4.2,-5.3,54,47,27,29.73,29.67,19,12,19,0.00
2013-3-15,35.3,27.7,17.6,15.9,-5.9,-20.7,55,25,1,29.75,29.43,14,4,14,0.02
2013-3-16,28.6,28.6,28.6,-21.0,-21.0,-21.0,5,5,5,29.59,29.59,3,3,3,0.00
2013-3-17,31.7,27.2,20.3,13.7,7.8,-13.3,54,44,20,30.13,29.89,12,6,12,0.00
2013-3-18,33.3,25.7,13.5,11.6,7.2,-3.1,55,46,37,30.22,29.95,11,4,11,0.00
2013-3-19,36.4,34.9,34.0,-15.1,-16.3,-16.9,1,1,1,29.51,29.48,4,3,4,0.02
2013-3-20,33.5,30.2,26.1,14.2,1.3,-19.8,45,30,2,29.58,29.56,10,6,10,0.01
2013-3-22,29.2,28.1,27.7,-20.7,-21.5,-21.8,10,2,1,29.62,29.59,6,4,6,0.00
2013-3-23,37.1,33.5,31.7,19.7,13.7,7.9,50,44,36,29.71,29.63,12,8,12,0.02
2013-3-24,41.6,34.0,29.5,23.8,11.6,0.5,52,40,28,29.71,29.55,5,1,5,0.02
2013-3-25,44.8,37.4,28.8,27.4,18.4,4.9,52,46,35,29.56,29.34,7,2,7,0.00
2013-3-26,34.4,33.3,32.4,7.7,2.9,-0.4,35,28,23,29.50,29.45,3,2,3,0.00
2013-3-27,43.4,38.3,34.9,26.5,14.9,3.2,51,39,26,29.72,29.70,12,9,12,0.00
2013-3-30,51.5,50.3,48.6,28.3,26.5,25.6,45,40,38,29.93,29.88,9,5,9,0.00
2013-3-31,55.1,44.0,39.6,34.9,4.2,-12.5,54,20,1,29.67,29.49,11,2,11,0.07